Volver al catálogo

STARLINK-32714

ActivoComunicacionesVLEO
NORAD 62499·PAYLOAD·🇺🇸 United States

Lanzado Jan 6, 2025 desde Cape Canaveral Space Force Station

Loading…

Próximos Pases (próximas 24 horas)

TLE

ActualizadoSource: CelesTrak SupGP

Época: Sep 15, 2026, 02:10 UTC

1 62499C 25003N   26258.09076389  .00035847  00000+0  12983-2 0  2584
2 62499  43.0007 299.6898 0001387 261.3959 107.2869 15.27563159    19

Sigue STARLINK-32714 en tiempo real con AllMySat

Download on the App Store